Regional Weather Roundup
Issued by NWS

Home | Current Version | Previous Version | Graphics & Text | Print | Product List | Glossary On
Versions: 1 2 3 4 5 6 7 8 9 10 11 12 13 14 15 16 17 18 19 20 21 22 23 24 25 26 27 28 29 30 31 32 33 34 35 36 37 38 39 40 41 42 43 44 45 46 47 48 49 50
000
ASUS43 KOAX 140502
RWRNE

WEATHER ROUNDUP FOR NEBRASKA
NATIONAL WEATHER SERVICE OMAHA NE
1200 AM CDT MON JUL 14 2014

NOTES: SATELLITE DATA IS BEING USED TO AUGMENT CLOUD COVER ABOVE
       12000 FEET.
       "FAIR" INDICATES FEW OR NO CLOUDS BELOW 12,000 FEET WITH NO
       SIGNIFICANT WEATHER AND/OR OBSTRUCTIONS TO VISIBILITY.

  * THESE STATIONS DO NOT REPORT WEATHER SUCH AS RAIN...SNOW OR FOG.

NEZ001>004-019>022-054>056-140600-
NEBRASKA PANHANDLE

CITY           SKY/WX    TMP DP  RH WIND       PRES   REMARKS
SCOTTSBLUFF    CLEAR     68  63  84 NE6       30.17S
ALLIANCE       CLEAR     63  57  81 CALM      30.18R
CHADRON        CLEAR     65  56  72 N6        30.17R
KIMBALL        CLEAR     64  59  85 S8        30.23S
SIDNEY         CLEAR     63  58  83 SW9       30.21S
$$

NEZ057>060-069>072-079>082-140600-
SOUTHWEST NEBRASKA

CITY           SKY/WX    TMP DP  RH WIND       PRES   REMARKS
NORTH PLATTE   PTCLDY    70  61  73 SW9       30.12R
IMPERIAL       CLEAR     65  62  90 W8        30.16R
LEXINGTON      CLEAR     69  65  87 W5        30.09R
MCCOOK         CLEAR     68  63  84 W5        30.12R
OGALLALA       CLEAR     63  61  93 CALM      30.14R
$$

NEZ005>010-023>029-035>040-094-140600-
NORTH CENTRAL NEBRASKA

CITY           SKY/WX    TMP DP  RH WIND       PRES   REMARKS
VALENTINE      PTCLDY    70  57  63 N8        30.12R
AINSWORTH      PTCLDY    69  55  62 N3        30.11R
BROKEN BOW     CLOUDY    68  65  90 SW7       30.09R
O`NEILL        PTCLDY    66  57  73 N7        30.07R
ORD            MOCLDY    66  62  87 CALM      30.04S
THEDFORD       MOCLDY    69  61  75 CALM      30.13R
$$

NEZ041-046>049-061>064-073>077-083>087-140600-
SOUTH CENTRAL NEBRASKA

CITY           SKY/WX    TMP DP  RH WIND       PRES   REMARKS
GRAND ISLAND   CLEAR     72  64  76 S5        30.04S
AURORA         CLEAR     68  67  96 SW5       30.03F
HASTINGS       CLEAR     75  64  68 S3        30.05S
HEBRON         CLEAR     72  68  87 CALM      30.03S
HOLDREGE       CLEAR     73  59  62 SW3       30.07S
KEARNEY *      CLEAR     72  63  73 S3        30.07S
YORK           CLEAR     68  68 100 S3        30.03S
$$

NEZ011>018-030>034-042>045-140600-
NORTHEAST NEBRASKA

CITY           SKY/WX    TMP DP  RH WIND       PRES   REMARKS
NORFOLK        PTCLDY    71  61  70 N9        30.02R
ALBION         MOCLDY    67  64  90 CALM      30.03S
BLAIR          CLEAR     72  57  60 CALM      29.98S
FREMONT        CLEAR     74  67  79 CALM      29.99S
TEKAMAH        PTCLDY    70  65  84 W7        29.96F
WAYNE          CLOUDY    71  65  81 NW7       30.02R
$$

NEZ050>053-065>068-078-088>093-140600-
SOUTHEAST NEBRASKA

CITY           SKY/WX    TMP DP  RH WIND       PRES   REMARKS
LINCOLN        CLEAR     74  68  81 W3        30.01S
OMAHA EPPLEY   CLEAR     73  68  84 CALM      29.97F
BEATRICE       CLEAR     69  67  96 CALM      30.01S
FALLS CITY     CLEAR     71  69  93 CALM      29.98S
NEBRASKA CITY  CLEAR     71  67  87 S5        29.99S
PLATTSMOUTH    CLEAR     72  65  79 SW5       29.98F
$$

NEZ044-045-051>053-067-140600-
OMAHA AREA

CITY           SKY/WX    TMP DP  RH WIND       PRES   REMARKS
OMAHA EPPLEY   CLEAR     73  68  84 CALM      29.97F
BLAIR          CLEAR     72  57  60 CALM      29.98S
FREMONT        CLEAR     74  67  79 CALM      29.99S
MILLARD        CLEAR     72  69  90 CALM      29.97F
OFFUTT AFB     CLEAR     71  71 100 CALM      29.97F
PLATTSMOUTH    CLEAR     72  65  79 SW5       29.98F
WAHOO          FAIR      71  67  85 W6        29.99S
$$



USA.gov is the U.S. government's official web portal to all federal, state and local government web resources and services.